Grand Forks AFB, ND

3:47 AM CST on November 22, 2017 (GMT -0600)
Grand Forks Air Force Base

Weather History for KRDR - August, 2013

Change the Weather History Date:

Thursday, August 8, 2013

  Actual Average Record
Temperature  
Mean Temperature 56 °F -  
Max Temperature 72 °F 78 °F 93 °F (2010)
Min Temperature 41 °F 55 °F 41 °F (2013)
Degree Days  
Heating Degree Days 9    
Growing Degree Days 6 (Base 50)    
Moisture  
Dew Point 49 °F    
Average Humidity 93    
Maximum Humidity 100    
Minimum Humidity 53    
Precipitation  
Precipitation 0.00 in - - ()
Sea Level Pressure  
Sea Level Pressure 30.05 in    
Wind  
Wind Speed 2 mph (NW)    
Max Wind Speed 12 mph    
Max Gust Speed 18 mph    
Visibility 5 miles    
Events Fog    
Averages and records for this station are not official NWS values.
T = Trace of Precipitation, MM = Missing Value Source: NWS Daily Summary

Daily Weather History Graph

Daily Weather History Graph

Search for Another Location

Airport or City:

Trip Planner

Search our weather history database for the weather conditions in past years. The results will help you decide how hot, cold, wet, or windy it might be!

Date:

Astronomy

Aug. 08, 2013 Rise Set
Actual Time 6:15 AM CDT 8:53 PM CDT
Civil Twilight 5:40 AM CDT 9:29 PM CDT
Nautical Twilight 4:55 AM CDT 10:13 PM CDT
Astronomical Twilight 4:03 AM CDT 11:05 PM CDT
Moon 8:16 AM CDT (8/8) 9:17 PM CDT (8/8)
Length of Visible Light 15h 48m
Length of Day
14h 38m
Waxing Crescent, 3% of the Moon is Illuminated
Aug 8
Waxing Crescent
Aug 14
First Quarter
Aug 20
Full
Aug 28
Last Quarter
Sep 5
New

Hourly Weather History & Observations

Time (CDT) Temp. Windchill Dew Point Humidity Pressure Visibility Wind Dir Wind Speed Gust Speed Precip Events Conditions
12:58 AM 52.0 °F - 51.6 °F 99% 30.07 in 10.0 mi NNE 3.5 mph - N/A   Clear
1:58 AM 48.9 °F - 48.6 °F 99% 30.07 in 10.0 mi NNW 2.3 mph - N/A   Clear
2:28 AM 48.2 °F - 48.2 °F 100% 30.05 in 8.0 mi WNW 2.3 mph - N/A   Clear
2:33 AM 48.2 °F - 48.2 °F 100% 30.05 in 3.0 mi Calm Calm - N/A   Clear
2:38 AM 48.2 °F - 48.2 °F 100% 30.05 in 2.0 mi Calm Calm - N/A   Clear
2:43 AM 48.2 °F - 48.2 °F 100% 30.05 in 4.0 mi Calm Calm - N/A   Clear
2:48 AM 48.2 °F - 48.2 °F 100% 30.05 in 1.5 mi West 2.3 mph - N/A   Clear
2:53 AM 46.4 °F - 46.4 °F 100% 30.05 in 0.8 mi WSW 2.3 mph - N/A   Clear
2:58 AM 46.4 °F - 46.4 °F 100% 30.07 in 0.8 mi WSW 2.3 mph - N/A   Clear
3:03 AM 48.2 °F - 48.2 °F 100% 30.05 in 1.5 mi SW 4.6 mph - N/A   Clear
3:08 AM 48.2 °F - 48.2 °F 100% 30.05 in 10.0 mi SW 3.5 mph - N/A   Clear
3:18 AM 46.4 °F - 46.4 °F 100% 30.04 in 5.0 mi West 1.2 mph - N/A   Clear
3:23 AM 46.4 °F - 46.4 °F 100% 30.04 in 3.0 mi West 2.3 mph - N/A   Clear
3:28 AM 46.4 °F - 46.4 °F 100% 30.04 in 5.0 mi WSW 2.3 mph - N/A   Clear
3:33 AM 48.2 °F - 48.2 °F 100% 30.04 in 10.0 mi WSW 1.2 mph - N/A   Clear
3:43 AM 48.2 °F - 48.2 °F 100% 30.04 in 9.0 mi WSW 2.3 mph - N/A   Clear
3:48 AM 48.2 °F - 48.2 °F 100% 30.04 in 2.0 mi West 1.2 mph - N/A   Clear
3:53 AM 46.4 °F - 46.4 °F 100% 30.04 in 0.8 mi West 2.3 mph - N/A   Clear
3:58 AM 45.5 °F - 45.5 °F 100% 30.06 in 0.5 mi West 2.3 mph - N/A Fog Fog
4:03 AM 44.6 °F - 44.6 °F 100% 30.04 in 0.5 mi WNW 2.3 mph - N/A Fog Fog
4:18 AM 44.6 °F - 44.6 °F 100% 30.03 in 0.2 mi Calm Calm - N/A Fog Fog
4:23 AM 44.6 °F - 44.6 °F 100% 30.03 in 0.5 mi NW 1.2 mph - N/A Fog Fog
4:43 AM 44.6 °F 42.2 °F 44.6 °F 100% 30.04 in 0.8 mi NW 4.6 mph - N/A   Clear
4:48 AM 44.6 °F 43.1 °F 44.6 °F 100% 30.04 in 1.2 mi NW 3.5 mph - N/A   Clear
4:53 AM 46.4 °F - 46.4 °F 100% 30.04 in 1.0 mi North 1.2 mph - N/A   Clear
4:58 AM 46.4 °F - 46.4 °F 100% 30.06 in 1.2 mi NNW 2.3 mph - N/A   Clear
5:03 AM 46.4 °F - 46.4 °F 100% 30.04 in 2.0 mi Calm Calm - N/A   Clear
5:08 AM 48.2 °F - 48.2 °F 100% 30.04 in 3.0 mi Calm Calm - N/A   Clear
5:13 AM 48.2 °F - 48.2 °F 100% 30.03 in 6.0 mi Calm Calm - N/A   Clear
5:18 AM 46.4 °F - 46.4 °F 100% 30.03 in 10.0 mi Calm Calm - N/A   Clear
5:28 AM 44.6 °F - 44.6 °F 100% 30.03 in 8.0 mi NNE 1.2 mph - N/A   Clear
5:33 AM 44.6 °F - 44.6 °F 100% 30.03 in 2.0 mi ENE 2.3 mph - N/A   Clear
5:38 AM 44.6 °F - 44.6 °F 100% 30.03 in 1.0 mi Calm Calm - N/A   Clear
5:43 AM 44.6 °F - 44.6 °F 100% 30.03 in 1.0 mi Calm Calm - N/A   Clear
5:48 AM 44.6 °F - 44.6 °F 100% 30.03 in 0.8 mi Calm Calm - N/A   Clear
5:53 AM 42.8 °F - 42.8 °F 100% 30.03 in 1.0 mi Calm Calm - N/A   Clear
5:58 AM 43.0 °F - 43.0 °F 100% 30.06 in 1.0 mi North 2.3 mph - N/A   Clear
6:03 AM 42.8 °F - 42.8 °F 100% 30.04 in 0.5 mi NNW 2.3 mph - N/A Fog Fog
6:08 AM 42.8 °F - 42.8 °F 100% 30.04 in 0.2 mi NW 2.3 mph - N/A Fog Fog
6:38 AM 41.0 °F - 41.0 °F 100% 30.04 in 0.2 mi Calm Calm - N/A Fog Fog
6:43 AM 42.8 °F - 42.8 °F 100% 30.04 in 0.2 mi Calm Calm - N/A Fog Fog
6:48 AM 42.8 °F - 42.8 °F 100% 30.04 in 0.2 mi Calm Calm - N/A Fog Fog
6:58 AM 42.8 °F - 42.8 °F 100% 30.06 in 0.2 mi Calm Calm - N/A Fog Fog
7:28 AM 46.4 °F - 46.4 °F 100% 30.04 in 0.2 mi NNE 2.3 mph - N/A Fog Fog
7:33 AM 48.2 °F - 48.2 °F 100% 30.04 in 0.5 mi ENE 1.2 mph - N/A Fog Fog
7:38 AM 48.2 °F - 48.2 °F 100% 30.04 in 0.5 mi Calm Calm - N/A Fog Fog
7:43 AM 50.0 °F - 50.0 °F 100% 30.04 in 9.0 mi Calm Calm - N/A   Clear
7:58 AM 51.1 °F - 51.1 °F 100% 30.07 in 10.0 mi NNE 2.3 mph - N/A   Clear
8:58 AM 55.9 °F - 55.9 °F 100% 30.07 in 10.0 mi WSW 2.3 mph - N/A   Clear
9:58 AM 60.4 °F - 60.3 °F 99% 30.08 in 10.0 mi Variable 3.5 mph - N/A   Scattered Clouds
10:58 AM 64.0 °F - 54.7 °F 72% 30.08 in 10.0 mi WSW 3.5 mph - N/A   Mostly Cloudy
11:22 AM 64.4 °F - 57.2 °F 77% 30.06 in 10.0 mi North 4.6 mph - N/A   Light Drizzle
11:58 AM 62.2 °F - 58.8 °F 89% 30.08 in 10.0 mi North 3.5 mph - 0.00 in   Light Drizzle
12:00 PM 62.6 °F - 59.0 °F 88% 30.06 in 10.0 mi North 3.5 mph - N/A   Mostly Cloudy
12:02 PM 62.6 °F - 59.0 °F 88% 30.06 in 10.0 mi North 3.5 mph - N/A   Light Drizzle
12:25 PM 62.6 °F - 57.2 °F 82% 30.06 in 10.0 mi Variable 1.2 mph - N/A   Overcast
12:30 PM 62.6 °F - 57.2 °F 82% 30.06 in 10.0 mi NNE 1.2 mph - N/A   Light Drizzle
12:58 PM 63.3 °F - 57.9 °F 83% 30.07 in 10.0 mi WNW 5.8 mph - 0.00 in   Light Drizzle
1:00 PM 64.4 °F - 57.2 °F 77% 30.05 in 10.0 mi WNW 8.1 mph - N/A   Mostly Cloudy
1:58 PM 68.2 °F - 56.1 °F 65% 30.05 in 10.0 mi WNW 8.1 mph - 0.00 in   Partly Cloudy
2:58 PM 71.1 °F - 55.0 °F 57% 30.04 in 10.0 mi NW 11.5 mph 18.4 mph N/A   Partly Cloudy
3:58 PM 68.5 °F - 54.0 °F 60% 30.04 in 10.0 mi NNW 11.5 mph - N/A   Mostly Cloudy
4:58 PM 69.1 °F - 53.8 °F 58% 30.04 in 10.0 mi NNW 8.1 mph - N/A   Partly Cloudy
5:58 PM 68.9 °F - 51.6 °F 54% 30.04 in 10.0 mi North 8.1 mph - N/A   Scattered Clouds
6:58 PM 68.9 °F - 50.9 °F 53% 30.04 in 10.0 mi NNE 9.2 mph - N/A   Partly Cloudy
8:58 PM 61.9 °F - 49.5 °F 64% 30.04 in 10.0 mi North 6.9 mph - N/A   Scattered Clouds
10:58 PM 56.1 °F - 46.8 °F 71% 30.06 in 10.0 mi NW 5.8 mph - N/A   Scattered Clouds
11:58 PM 52.3 °F - 46.4 °F 80% 30.07 in 10.0 mi West 8.1 mph - N/A   Clear